Location: Elaine Barite Prospect
(34.1431°N, 106.7922°W)
Time: 05:49:08
(UTC+00:00)

Cosmos 2322 Rocket - Pass Details

Date: 13 December 2025
Orbit: 831 x 851 km, 71.0° (Epoch: 12 January)

Event Time Altitude Azimuth Distance (km) Brightness Sun altitude
Exits shadow 12:18:11 12° 350° (N) 2,361 4.3 -21.3°
Maximum altitude 12:23:26 54° 66° (ENE) 1,015 2.8 -20.3°
Drops below altitude 10° 12:28:56 10° 144° (SE) 2,451 5.3 -19.2°
Sets 12:31:25 0° 148° (SSE) 3,379 6.1 -18.7°
